Time,TemperatureF,DewpointF,PressureIn,WindDirection,WindDirectionDegrees,WindSpeedMPH,WindSpeedGustMPH,Humidity,HourlyPrecipIn,Conditions,Clouds,dailyrainin,SoftwareType,DateUTC
2013-12-07 00:02:00,32.0,32.0,-100.00,ESE,120,2.0,4.0,99,-99.99,,,-99.99,,2013-12-07 09:02:00,
2013-12-07 00:12:00,32.0,32.0,-100.00,ESE,120,2.0,4.0,99,-99.99,,,-99.99,,2013-12-07 09:12:00,
2013-12-07 00:21:00,32.0,32.0,-100.00,SE,130,2.0,5.0,99,-99.99,,,-99.99,,2013-12-07 09:21:00,
2013-12-07 00:33:00,32.0,32.0,-100.00,SE,130,2.0,5.0,99,-99.99,,,-99.99,,2013-12-07 09:33:00,
2013-12-07 00:43:00,32.0,32.0,-100.00,SE,130,2.0,5.0,99,-99.99,,,-99.99,,2013-12-07 09:43:00,
2013-12-07 00:53:00,32.0,32.0,-100.00,ENE,70,2.0,4.0,99,-99.99,,,-99.99,,2013-12-07 09:53:00,
2013-12-07 01:03:00,32.0,32.0,-100.00,ENE,70,2.0,4.0,99,-99.99,,,-99.99,,2013-12-07 10:03:00,
2013-12-07 01:13:00,32.0,32.0,-100.00,ENE,70,2.0,4.0,99,-99.99,,,-99.99,,2013-12-07 10:13:00,
2013-12-07 01:23:00,32.0,32.0,-100.00,NE,40,0.0,1.0,99,-99.99,,,-99.99,,2013-12-07 10:23:00,
2013-12-07 01:33:00,32.0,32.0,-100.00,NE,40,0.0,1.0,99,-99.99,,,-99.99,,2013-12-07 10:33:00,
2013-12-07 01:43:00,32.0,32.0,-100.00,NE,40,0.0,1.0,99,-99.99,,,-99.99,,2013-12-07 10:43:00,
2013-12-07 01:53:00,32.0,32.0,-100.00,NNW,330,0.0,0.0,99,-99.99,,,-99.99,,2013-12-07 10:53:00,
2013-12-07 02:02:00,32.0,32.0,-100.00,NNW,330,0.0,0.0,99,-99.99,,,-99.99,,2013-12-07 11:02:00,
2013-12-07 02:12:00,32.0,32.0,-100.00,NNW,330,0.0,0.0,99,-99.99,,,-99.99,,2013-12-07 11:12:00,
2013-12-07 02:22:00,32.0,32.0,-100.00,West,280,1.0,1.0,99,-99.99,,,-99.99,,2013-12-07 11:22:00,
2013-12-07 02:32:00,32.0,32.0,-100.00,West,280,1.0,1.0,99,-99.99,,,-99.99,,2013-12-07 11:32:00,
2013-12-07 02:42:00,32.0,32.0,-100.00,West,280,1.0,1.0,99,-99.99,,,-99.99,,2013-12-07 11:42:00,
2013-12-07 02:52:00,32.0,32.0,-100.00,WNW,300,1.0,3.0,99,-99.99,,,-99.99,,2013-12-07 11:52:00,
2013-12-07 03:02:00,32.0,32.0,-100.00,WNW,300,1.0,3.0,99,-99.99,,,-99.99,,2013-12-07 12:02:00,
2013-12-07 03:12:00,32.0,32.0,-100.00,WNW,300,1.0,3.0,99,-99.99,,,-99.99,,2013-12-07 12:12:00,
2013-12-07 03:22:00,32.0,32.0,-100.00,NNE,15,0.0,0.0,99,-99.99,,,-99.99,,2013-12-07 12:22:00,
2013-12-07 03:32:00,32.0,32.0,-100.00,NNE,15,0.0,0.0,99,-99.99,,,-99.99,,2013-12-07 12:32:00,
2013-12-07 03:42:00,32.0,32.0,-100.00,NNE,15,0.0,0.0,99,-99.99,,,-99.99,,2013-12-07 12:42:00,
2013-12-07 03:52:00,32.0,31.0,-100.00,East,95,1.0,1.0,99,-99.99,,,-99.99,,2013-12-07 12:52:00,
2013-12-07 04:02:00,32.0,31.0,-100.00,East,95,1.0,1.0,99,-99.99,,,-99.99,,2013-12-07 13:02:00,
2013-12-07 04:11:00,32.0,31.0,-100.00,East,95,1.0,1.0,99,-99.99,,,-99.99,,2013-12-07 13:11:00,
2013-12-07 04:22:00,32.0,32.0,-100.00,NW,310,2.0,2.0,99,-99.99,,,-99.99,,2013-12-07 13:22:00,
2013-12-07 04:32:00,32.0,32.0,-100.00,NW,310,2.0,2.0,99,-99.99,,,-99.99,,2013-12-07 13:32:00,
2013-12-07 04:42:00,32.0,32.0,-100.00,NW,310,2.0,2.0,99,-99.99,,,-99.99,,2013-12-07 13:42:00,
2013-12-07 04:52:00,32.0,32.0,-100.00,NW,325,4.0,7.0,99,-99.99,,,-99.99,,2013-12-07 13:52:00,
2013-12-07 05:02:00,32.0,32.0,-100.00,NW,325,4.0,7.0,99,-99.99,,,-99.99,,2013-12-07 14:02:00,
2013-12-07 05:12:00,32.0,32.0,-100.00,NW,325,4.0,7.0,99,-99.99,,,-99.99,,2013-12-07 14:12:00,
2013-12-07 05:21:00,32.0,32.0,-100.00,NW,305,2.0,4.0,99,-99.99,,,-99.99,,2013-12-07 14:21:00,
2013-12-07 05:32:00,32.0,32.0,-100.00,NW,305,2.0,4.0,99,-99.99,,,-99.99,,2013-12-07 14:32:00,
2013-12-07 05:42:00,32.0,32.0,-100.00,NW,305,2.0,4.0,99,-99.99,,,-99.99,,2013-12-07 14:42:00,
2013-12-07 05:52:00,33.0,33.0,-100.00,NNW,340,0.0,3.0,99,-99.99,,,-99.99,,2013-12-07 14:52:00,
2013-12-07 06:02:00,33.0,33.0,-100.00,NNW,340,0.0,3.0,99,-99.99,,,-99.99,,2013-12-07 15:02:00,
2013-12-07 06:11:00,33.0,33.0,-100.00,NNW,340,0.0,3.0,99,-99.99,,,-99.99,,2013-12-07 15:11:00,
2013-12-07 06:21:00,33.0,32.0,-100.00,ESE,105,1.0,2.0,99,-99.99,,,-99.99,,2013-12-07 15:21:00,
2013-12-07 06:33:00,33.0,32.0,-100.00,ESE,105,1.0,2.0,99,-99.99,,,-99.99,,2013-12-07 15:33:00,
2013-12-07 06:43:00,33.0,32.0,-100.00,ESE,105,1.0,2.0,99,-99.99,,,-99.99,,2013-12-07 15:43:00,
2013-12-07 06:53:00,32.0,32.0,-100.00,ESE,105,1.0,2.0,99,-99.99,,,-99.99,,2013-12-07 15:53:00,
2013-12-07 07:03:00,32.0,32.0,-100.00,ESE,105,1.0,2.0,99,-99.99,,,-99.99,,2013-12-07 16:03:00,
2013-12-07 07:13:00,32.0,32.0,-100.00,ESE,105,1.0,2.0,99,-99.99,,,-99.99,,2013-12-07 16:13:00,
2013-12-07 07:20:00,32.0,32.0,-100.00,SSE,160,1.0,2.0,99,-99.99,,,-99.99,,2013-12-07 16:20:00,
2013-12-07 07:23:00,32.0,32.0,-100.00,East,90,2.0,4.0,99,-99.99,,,-99.99,,2013-12-07 16:23:00,
2013-12-07 07:33:00,32.0,32.0,-100.00,East,90,2.0,4.0,99,-99.99,,,-99.99,,2013-12-07 16:33:00,
2013-12-07 07:43:00,32.0,32.0,-100.00,East,90,2.0,4.0,99,-99.99,,,-99.99,,2013-12-07 16:43:00,
2013-12-07 07:52:00,32.0,32.0,-100.00,SSE,160,1.0,2.0,99,-99.99,,,-99.99,,2013-12-07 16:52:00,
2013-12-07 08:02:00,32.0,32.0,-100.00,SSE,160,1.0,2.0,99,-99.99,,,-99.99,,2013-12-07 17:02:00,
2013-12-07 08:12:00,32.0,32.0,-100.00,SSE,160,1.0,2.0,99,-99.99,,,-99.99,,2013-12-07 17:12:00,
2013-12-07 08:52:00,32.0,32.0,-100.00,NE,45,1.0,2.0,99,-99.99,,,-99.99,,2013-12-07 17:52:00,
2013-12-07 09:02:00,32.0,32.0,-100.00,NE,45,1.0,2.0,99,-99.99,,,-99.99,,2013-12-07 18:02:00,
2013-12-07 09:12:00,32.0,32.0,-100.00,NE,45,1.0,2.0,99,-99.99,,,-99.99,,2013-12-07 18:12:00,
2013-12-07 09:22:00,33.0,32.0,-100.00,SE,130,0.0,0.0,99,-99.99,,,-99.99,,2013-12-07 18:22:00,
2013-12-07 09:32:00,33.0,32.0,-100.00,SE,130,0.0,0.0,99,-99.99,,,-99.99,,2013-12-07 18:32:00,
2013-12-07 09:43:00,33.0,32.0,-100.00,SE,130,0.0,0.0,99,-99.99,,,-99.99,,2013-12-07 18:43:00,
2013-12-07 09:52:00,32.0,32.0,-100.00,East,95,1.0,1.0,99,-99.99,,,-99.99,,2013-12-07 18:52:00,
2013-12-07 10:02:00,32.0,32.0,-100.00,East,95,1.0,1.0,99,-99.99,,,-99.99,,2013-12-07 19:02:00,
2013-12-07 10:11:00,32.0,32.0,-100.00,East,95,1.0,1.0,99,-99.99,,,-99.99,,2013-12-07 19:11:00,
2013-12-07 10:22:00,32.0,32.0,-100.00,ESE,115,2.0,4.0,99,-99.99,,,-99.99,,2013-12-07 19:22:00,
2013-12-07 10:32:00,32.0,32.0,-100.00,ESE,115,2.0,4.0,99,-99.99,,,-99.99,,2013-12-07 19:32:00,
2013-12-07 10:42:00,32.0,32.0,-100.00,ESE,115,2.0,4.0,99,-99.99,,,-99.99,,2013-12-07 19:42:00,
2013-12-07 10:52:00,33.0,32.0,-100.00,SE,125,2.0,4.0,99,-99.99,,,-99.99,,2013-12-07 19:52:00,
2013-12-07 11:02:00,33.0,32.0,-100.00,SE,125,2.0,4.0,99,-99.99,,,-99.99,,2013-12-07 20:02:00,
2013-12-07 11:11:00,33.0,32.0,-100.00,SE,125,2.0,4.0,99,-99.99,,,-99.99,,2013-12-07 20:11:00,
2013-12-07 11:22:00,33.0,32.0,-100.00,SE,125,2.0,3.0,99,-99.99,,,-99.99,,2013-12-07 20:22:00,
2013-12-07 11:32:00,33.0,32.0,-100.00,SE,125,2.0,3.0,99,-99.99,,,-99.99,,2013-12-07 20:32:00,
2013-12-07 11:42:00,33.0,32.0,-100.00,SE,125,2.0,3.0,99,-99.99,,,-99.99,,2013-12-07 20:42:00,
2013-12-07 11:52:00,33.0,32.0,-100.00,North,10,0.0,3.0,99,-99.99,,,-99.99,,2013-12-07 20:52:00,
2013-12-07 12:02:00,33.0,32.0,-100.00,North,10,0.0,3.0,99,-99.99,,,-99.99,,2013-12-07 21:02:00,
2013-12-07 12:11:00,33.0,32.0,-100.00,North,10,0.0,3.0,99,-99.99,,,-99.99,,2013-12-07 21:11:00,
2013-12-07 12:22:00,33.0,33.0,-100.00,NW,325,1.0,1.0,99,-99.99,,,-99.99,,2013-12-07 21:22:00,
2013-12-07 12:33:00,33.0,33.0,-100.00,NW,325,1.0,1.0,99,-99.99,,,-99.99,,2013-12-07 21:33:00,
2013-12-07 12:43:00,33.0,33.0,-100.00,NW,325,1.0,1.0,99,-99.99,,,-99.99,,2013-12-07 21:43:00,
2013-12-07 12:53:00,33.0,33.0,-100.00,North,0,1.0,1.0,99,-99.99,,,-99.99,,2013-12-07 21:53:00,
2013-12-07 13:03:00,33.0,33.0,-100.00,North,0,1.0,1.0,99,-99.99,,,-99.99,,2013-12-07 22:03:00,
2013-12-07 13:13:00,33.0,33.0,-100.00,North,0,1.0,1.0,99,-99.99,,,-99.99,,2013-12-07 22:13:00,
2013-12-07 13:23:00,33.0,33.0,-100.00,NE,55,1.0,2.0,99,-99.99,,,-99.99,,2013-12-07 22:23:00,
2013-12-07 13:33:00,33.0,33.0,-100.00,NE,55,1.0,2.0,99,-99.99,,,-99.99,,2013-12-07 22:33:00,
2013-12-07 13:42:00,33.0,33.0,-100.00,NE,55,1.0,2.0,99,-99.99,,,-99.99,,2013-12-07 22:42:00,
2013-12-07 13:53:00,33.0,33.0,-100.00,West,260,0.0,2.0,99,-99.99,,,-99.99,,2013-12-07 22:53:00,
2013-12-07 14:02:00,33.0,33.0,-100.00,West,260,0.0,2.0,99,-99.99,,,-99.99,,2013-12-07 23:02:00,
2013-12-07 14:12:00,33.0,33.0,-100.00,West,260,0.0,2.0,99,-99.99,,,-99.99,,2013-12-07 23:12:00,
2013-12-07 14:21:00,33.0,33.0,-100.00,West,275,0.0,1.0,99,-99.99,,,-99.99,,2013-12-07 23:21:00,
2013-12-07 14:33:00,33.0,33.0,-100.00,West,275,0.0,1.0,99,-99.99,,,-99.99,,2013-12-07 23:33:00,
2013-12-07 14:42:00,33.0,33.0,-100.00,West,275,0.0,1.0,99,-99.99,,,-99.99,,2013-12-07 23:42:00,
2013-12-07 14:52:00,33.0,33.0,-100.00,SE,140,0.0,1.0,99,-99.99,,,-99.99,,2013-12-07 23:52:00,
2013-12-07 15:02:00,33.0,33.0,-100.00,SE,140,0.0,1.0,99,-99.99,,,-99.99,,2013-12-08 00:02:00,
2013-12-07 15:11:00,33.0,33.0,-100.00,SE,140,0.0,1.0,99,-99.99,,,-99.99,,2013-12-08 00:11:00,
2013-12-07 15:22:00,33.0,33.0,-100.00,NW,325,0.0,0.0,99,-99.99,,,-99.99,,2013-12-08 00:22:00,
2013-12-07 15:32:00,33.0,33.0,-100.00,NW,325,0.0,0.0,99,-99.99,,,-99.99,,2013-12-08 00:32:00,
2013-12-07 15:42:00,33.0,33.0,-100.00,NW,325,0.0,0.0,99,-99.99,,,-99.99,,2013-12-08 00:42:00,
2013-12-07 15:52:00,33.0,33.0,-100.00,SE,145,0.0,1.0,99,-99.99,,,-99.99,,2013-12-08 00:52:00,
2013-12-07 16:02:00,33.0,33.0,-100.00,SE,145,0.0,1.0,99,-99.99,,,-99.99,,2013-12-08 01:02:00,
2013-12-07 16:12:00,33.0,33.0,-100.00,SE,145,0.0,1.0,99,-99.99,,,-99.99,,2013-12-08 01:12:00,
2013-12-07 16:22:00,33.0,33.0,-100.00,SE,125,0.0,1.0,99,-99.99,,,-99.99,,2013-12-08 01:22:00,
2013-12-07 16:32:00,33.0,33.0,-100.00,SE,125,0.0,1.0,99,-99.99,,,-99.99,,2013-12-08 01:32:00,
2013-12-07 16:42:00,33.0,33.0,-100.00,SE,125,0.0,1.0,99,-99.99,,,-99.99,,2013-12-08 01:42:00,
2013-12-07 16:52:00,33.0,33.0,-100.00,SE,130,1.0,2.0,99,-99.99,,,-99.99,,2013-12-08 01:52:00,
2013-12-07 17:02:00,33.0,33.0,-100.00,SE,130,1.0,2.0,99,-99.99,,,-99.99,,2013-12-08 02:02:00,
2013-12-07 17:12:00,33.0,33.0,-100.00,SE,130,1.0,2.0,99,-99.99,,,-99.99,,2013-12-08 02:12:00,
2013-12-07 17:21:00,33.0,32.0,-100.00,ESE,115,1.0,2.0,99,-99.99,,,-99.99,,2013-12-08 02:21:00,
2013-12-07 17:32:00,33.0,32.0,-100.00,ESE,115,1.0,2.0,99,-99.99,,,-99.99,,2013-12-08 02:32:00,
2013-12-07 17:43:00,33.0,32.0,-100.00,ESE,115,1.0,2.0,99,-99.99,,,-99.99,,2013-12-08 02:43:00,
2013-12-07 17:52:00,33.0,32.0,-100.00,SE,125,1.0,2.0,99,-99.99,,,-99.99,,2013-12-08 02:52:00,
2013-12-07 18:02:00,33.0,32.0,-100.00,SE,125,1.0,2.0,99,-99.99,,,-99.99,,2013-12-08 03:02:00,
2013-12-07 18:11:00,33.0,32.0,-100.00,SE,125,1.0,2.0,99,-99.99,,,-99.99,,2013-12-08 03:11:00,
2013-12-07 18:22:00,33.0,33.0,-100.00,South,170,0.0,1.0,99,-99.99,,,-99.99,,2013-12-08 03:22:00,
2013-12-07 18:33:00,33.0,33.0,-100.00,South,170,0.0,1.0,99,-99.99,,,-99.99,,2013-12-08 03:33:00,
2013-12-07 18:43:00,33.0,33.0,-100.00,South,170,0.0,1.0,99,-99.99,,,-99.99,,2013-12-08 03:43:00,
2013-12-07 18:54:00,33.0,32.0,-100.00,SSE,155,1.0,1.0,99,-99.99,,,-99.99,,2013-12-08 03:54:00,
2013-12-07 19:02:00,-999.0,-99.9,-100.00,SSE,155,1.0,1.0,-999,-99.99,,,-99.99,,2013-12-08 04:02:00,
2013-12-07 19:13:00,33.0,32.0,-100.00,SSE,155,1.0,1.0,99,-99.99,,,-99.99,,2013-12-08 04:13:00,
2013-12-07 19:23:00,33.0,32.0,-100.00,SE,130,0.0,2.0,99,-99.99,,,-99.99,,2013-12-08 04:23:00,
2013-12-07 19:33:00,33.0,32.0,-100.00,SE,130,0.0,2.0,99,-99.99,,,-99.99,,2013-12-08 04:33:00,
2013-12-07 19:43:00,33.0,32.0,-100.00,SE,130,0.0,2.0,99,-99.99,,,-99.99,,2013-12-08 04:43:00,
2013-12-07 19:50:00,32.0,32.0,-100.00,NW,315,0.0,2.0,99,-99.99,,,-99.99,,2013-12-08 04:50:00,
2013-12-07 19:53:00,32.0,32.0,-100.00,NW,305,0.0,1.0,99,-99.99,,,-99.99,,2013-12-08 04:53:00,
2013-12-07 20:02:00,32.0,32.0,-100.00,NW,305,0.0,1.0,99,-99.99,,,-99.99,,2013-12-08 05:02:00,
2013-12-07 20:12:00,32.0,32.0,-100.00,NW,305,0.0,1.0,99,-99.99,,,-99.99,,2013-12-08 05:12:00,
2013-12-07 20:22:00,32.0,32.0,-100.00,NW,315,0.0,2.0,99,-99.99,,,-99.99,,2013-12-08 05:22:00,
2013-12-07 20:33:00,32.0,32.0,-100.00,NW,315,0.0,2.0,99,-99.99,,,-99.99,,2013-12-08 05:33:00,
2013-12-07 20:43:00,32.0,32.0,-100.00,NW,315,0.0,2.0,99,-99.99,,,-99.99,,2013-12-08 05:43:00,
2013-12-07 21:23:00,32.0,32.0,-100.00,WNW,290,1.0,2.0,99,-99.99,,,-99.99,,2013-12-08 06:23:00,
2013-12-07 21:32:00,32.0,32.0,-100.00,WNW,290,1.0,2.0,99,-99.99,,,-99.99,,2013-12-08 06:32:00,
2013-12-07 21:42:00,32.0,32.0,-100.00,WNW,290,1.0,2.0,99,-99.99,,,-99.99,,2013-12-08 06:42:00,
2013-12-07 21:52:00,32.0,32.0,-100.00,WNW,295,3.0,4.0,99,-99.99,,,-99.99,,2013-12-08 06:52:00,
2013-12-07 22:02:00,32.0,32.0,-100.00,WNW,295,3.0,4.0,99,-99.99,,,-99.99,,2013-12-08 07:02:00,
2013-12-07 22:12:00,32.0,32.0,-100.00,WNW,295,3.0,4.0,99,-99.99,,,-99.99,,2013-12-08 07:12:00,
2013-12-07 22:21:00,32.0,32.0,-100.00,NNW,345,1.0,2.0,99,-99.99,,,-99.99,,2013-12-08 07:21:00,
2013-12-07 22:32:00,32.0,32.0,-100.00,NNW,345,1.0,2.0,99,-99.99,,,-99.99,,2013-12-08 07:32:00,
2013-12-07 22:42:00,32.0,32.0,-100.00,NNW,345,1.0,2.0,99,-99.99,,,-99.99,,2013-12-08 07:42:00,
2013-12-07 22:53:00,32.0,32.0,-100.00,WSW,250,1.0,1.0,99,-99.99,,,-99.99,,2013-12-08 07:53:00,
2013-12-07 23:02:00,32.0,32.0,-100.00,WSW,250,1.0,1.0,99,-99.99,,,-99.99,,2013-12-08 08:02:00,
2013-12-07 23:11:00,32.0,32.0,-100.00,WSW,250,1.0,1.0,99,-99.99,,,-99.99,,2013-12-08 08:11:00,
2013-12-07 23:22:00,32.0,32.0,-100.00,South,190,1.0,2.0,99,-99.99,,,-99.99,,2013-12-08 08:22:00,
2013-12-07 23:32:00,32.0,32.0,-100.00,South,190,1.0,2.0,99,-99.99,,,-99.99,,2013-12-08 08:32:00,
2013-12-07 23:42:00,32.0,32.0,-100.00,South,190,1.0,2.0,99,-99.99,,,-99.99,,2013-12-08 08:42:00,
2013-12-07 23:52:00,32.0,32.0,-100.00,East,90,0.0,1.0,99,-99.99,,,-99.99,,2013-12-08 08:52:00,